Regional Weather Roundup
Issued by NWS Upton, NY

Current Version | Previous Version | Graphics & Text | Print | Product List | Glossary Off
Versions: 1 2 3 4 5 6 7 8 9 10 11 12 13 14 15 16 17 18 19 20 21 22 23 24 25 26 27 28 29 30 31 32 33 34 35 36 37 38 39 40 41 42 43 44 45 46 47 48 49 50

000
ASUS41 KOKX 181105
RWROKX

REGIONAL WEATHER ROUNDUP
NATIONAL WEATHER SERVICE NEW YORK NY
700 AM EDT THU SEP 18 2014

NOTE: "FAIR" INDICATES FEW OR NO CLOUDS BELOW 12,000 FEET WITH NO
SIGNIFICANT WEATHER AND/OR OBSTRUCTIONS TO VISIBILITY.

NYZ071-072-176-178-NJZ106-104-181200-
NEW YORK CITY METRO AREA


CITY           SKY/WX    TMP DP  RH WIND       PRES   REMARKS
CENTRAL PARK   CLEAR     57  49  74 CALM      30.02R
LAGUARDIA APRT PTCLDY    61  50  67 NW5       29.98R
KENNEDY INTL   PTCLDY    59  51  75 W3        30.00R
NEWARK/LIBERTY PTCLDY    57  52  83 N5        30.00R
BRNX BOT. GARD   N/A     54  50  87 NE2       30.02R
TETERBORO      CLEAR     52  46  80 CALM      29.99R
$$

NYZ177-179-078>081-181200-
LONG ISLAND NEW YORK

CITY           SKY/WX    TMP DP  RH WIND       PRES   REMARKS
FARMINGDALE    CLEAR     56  51  84 CALM      29.99R
ISLIP          PTCLDY    53  50  89 CALM      29.97R
SHIRLEY        MOCLDY    50  48  93 CALM      29.99R
WESTHAMPTON    CLEAR     42  39  89 CALM      30.00R
MONTAUK POINT    N/A     62  55  77 NW5       29.99R
$$

NYZ052-065-067-181200-
HUDSON VALLEY

CITY           SKY/WX    TMP DP  RH WIND       PRES   REMARKS
WHITE PLAINS   CLEAR     51  47  86 NW6       29.99R
NEWBURGH       CLEAR     45  45 100 CALM      30.01R
MONTGOMERY     CLEAR     40  38  93 CALM      30.01R
POUGHKEEPSIE   CLEAR     43  41  93 CALM      30.00R
ALBANY         PTCLDY    45  42  89 CALM      30.00R
$$

NJZ001-105-106-008-010-013-015-019>022-104-181200-
NEW JERSEY

CITY           SKY/WX    TMP DP  RH WIND       PRES   REMARKS
NEWARK/LIBERTY PTCLDY    57  52  83 N5        30.00R
TETERBORO      CLEAR     52  46  80 CALM      29.99R
CALDWELL       PTCLDY    46  44  93 CALM      30.01R
MORRISTOWN     PTCLDY    45  43  93 CALM      30.01R
SOMERVILLE     CLOUDY    45  42  89 CALM      29.99R
LINDEN         FAIR      56  53  88 CALM      30.01R
SUSSEX         CLOUDY    44  41  89 SW3       30.02R
ANDOVER          N/A     44  43  96 CALM      30.02R
TRENTON        MOCLDY    49  47  93 N5        29.99R
MILLVILLE      CLEAR     47  46  97 CALM      30.00R
ATLANTIC CITY  CLEAR     52  49  89 W3        30.00R
WRIGHTSTOWN    CLEAR     49  48  97 CALM      29.98R
TOMS RIVER     CLEAR     43  39  87 CALM      30.00R
BELMAR         CLEAR     52  46  82 NW5       29.99R
$$

PAZ047>061-062-071-181200-
EASTERN PENNSYLVANIA

CITY           SKY/WX    TMP DP  RH WIND       PRES   REMARKS
PHILADELPHIA   MOCLDY    57  49  74 CALM      30.01R
ALLENTOWN      CLOUDY    50  46  86 CALM      30.01R
SCRANTON       CLOUDY    48  44  86 CALM      30.02R
$$

CTZ002-004>006-009-010-012-RIZ004-006-007-MAZ004-011-015-181200-
SOUTHERN NEW ENGLAND
 IN CT

CITY           SKY/WX    TMP DP  RH WIND       PRES   REMARKS
BRADLEY INTL   PTCLDY    45  41  86 CALM      29.99R
HARTFORD       FOG       47  46  97 MISG      30.00R VSB<1/4
DANBURY        PTCLDY    43  41  93 CALM      30.02R
WTRBRY/OXFORD  PTCLDY    48  41  76 N3        30.00R
BRIDGEPORT     CLEAR     52  48  86 CALM      29.99R
MERIDEN        CLEAR     45  42  89 CALM      30.00R
NEW HAVEN      PTCLDY    51  45  79 CALM      29.99R
CHESTER        FAIR      48  46  93 CALM      29.99R
GROTON         CLEAR     47  46  97 N5        29.98R
WILLIMANTIC    PTCLDY    42  40  92 CALM      30.00R

 IN RI

CITY           SKY/WX    TMP DP  RH WIND       PRES   REMARKS
PROVIDENCE     PTCLDY    49  45  86 CALM      29.97S
BLOCK ISLAND   CLEAR     55  50  82 NW3       29.97R
WESTERLY       CLEAR     45  43  93 CALM      29.98R

 IN MA

CITY           SKY/WX    TMP DP  RH WIND       PRES   REMARKS
BOSTON         PTCLDY    57  46  66 W7        29.96R
WORCESTER      CLEAR     52  43  71 W10       29.97S
WESTFIELD      CLEAR     42  40  92 CALM      29.99R FOG
PROVINCETOWN   CLEAR     57  50  77 W6        29.96R
NANTUCKET      PTCLDY    51  46  83 CALM      29.95R
$$

ANZ330-335-338-340-345-350-353-355-181200-
COASTAL MARINE OBSERVATIONS


STATION/POSITION TIME  SKY/WX   TEMP    WIND        PRES    VSBY  WAVE
                                AIR SEA DIR/SP/G                  HT/PER
                 (UTC)          (F)     (DEG/KT/KT) (MB)    (MI)  (FT/S)
NY HARB ENTRANCE 1100            64 70  280/ 10/ 12 1015.7          4/14
4S FIRE IS       1100               70                N/A           4/11
23SW MTP         1100                                 N/A           3/13
HUDSON CANYON    1100            67 73  350/ 10/ 12 1014.8          6/14
EXECUTION ROCKS  1100            60 70  270/  4/  6   N/A
WESTERN LI SOUND 1100            60     290/  4/  6   N/A           0
CENTRAL LI SOUND 1000            62 70  340/  6/  8   N/A           1
EASTERN LI SOUND 1000            56 68  350/  6/ 10   N/A
ROBBINS REEF     1100            59     320/  6/  7 1014.3
$$


>>>>>>>>>>>>>>>>>>>>>>>>>>>> KEY <<<<<<<<<<<<<<<<<<<<<<<<<<<
>                                                          <
>     SKY/WX - SKY CONDITION/PRESENT WEATHER               <
>     TMP    - TEMPERATURE IN FAHRENHEIT                   <
>     DP     - DEWPOINT IN FAHRENHEIT                      <
>     RH     - RELATIVE HUMIDITY IN PERCENT                <
>     WIND   - DIRECTION AND SPEED IN MPH                  <
>     PRES   - MEAN SEA LEVEL PRESSURE IN INCHES OF HG     <
>     WCI    - WIND CHILL INDEX                            <
>     VSB    - VISIBILITY IN MILES                         <
>     HX     - HEAT INDEX                                  <
>     TC     - TEMPERATURE IN CELSIUS                      <
>     VRB    - VARIABLE WIND DIRECTION                     <
>                                                          <
>>>>>>>>>>>>>>>>>>>>>>>>>>>> KEY <<<<<<<<<<<<<<<<<<<<<<<<<<<




USA.gov is the U.S. government's official web portal to all federal, state and local government web resources and services.